Date,TemperatureHighF,TemperatureAvgF,TemperatureLowF,DewpointHighF,DewpointAvgF,DewpointLowF,HumidityHigh,HumidityAvg,HumidityLow,PressureMaxIn,PressureMinIn,WindSpeedMaxMPH,WindSpeedAvgMPH,GustSpeedMaxMPH,PrecipitationSumIn
2013-1-5,36.0,29.2,21.6,33.3,25.9,18.0,90,87,84,29.87,29.82,16,4,16,0.00
2013-1-6,28.4,18.1,11.7,19.6,14.5,9.9,95,86,68,30.17,29.87,8,1,8,0.00
2013-1-7,42.4,29.7,11.9,30.2,23.5,9.9,97,79,60,30.14,29.89,17,2,17,0.00
2013-1-8,43.4,34.0,19.9,33.5,28.8,18.0,97,82,66,29.91,29.77,13,3,15,0.00
2013-1-9,42.4,33.2,25.2,33.8,29.6,23.8,97,87,70,30.32,29.88,16,3,16,0.00
2013-1-10,38.2,32.5,25.4,36.4,29.7,23.6,100,90,71,30.30,29.61,17,4,17,0.10
2013-1-11,53.2,43.9,34.8,47.6,42.8,34.5,100,96,80,29.63,29.39,17,3,17,0.04
2013-1-12,53.9,29.5,17.9,47.4,23.5,11.0,93,78,67,29.94,29.41,22,5,22,0.00
2013-1-13,17.9,14.2,10.8,10.8,8.4,5.3,84,77,69,30.18,29.84,14,1,15,0.00
2013-1-14,28.5,12.4,3.7,15.9,7.3,1.2,94,80,58,30.36,30.18,8,1,11,0.00
2013-1-15,34.3,25.7,20.6,15.7,13.5,12.2,71,60,44,30.13,29.95,11,2,11,0.00
2013-1-16,42.4,30.6,19.4,35.9,23.9,11.9,97,76,66,30.01,29.71,16,4,16,0.00
2013-1-17,33.6,24.0,14.8,26.0,16.7,11.7,93,75,44,30.30,30.00,10,1,10,0.00
2013-1-18,54.5,39.4,24.0,34.7,29.3,20.6,88,69,45,30.25,29.73,21,5,23,0.00
2013-1-19,52.9,38.8,15.9,37.7,30.1,7.0,82,71,53,30.02,29.62,15,4,19,0.00
2013-1-20,16.9,12.3,7.8,11.0,6.2,1.8,83,76,65,30.25,30.02,12,2,13,0.00
2013-1-21,12.8,5.8,-0.8,6.4,-2.5,-8.1,82,69,51,30.25,30.14,13,3,16,0.00
2013-1-22,15.5,7.3,-3.6,4.3,-1.0,-7.3,85,69,52,30.33,30.21,10,1,10,0.00
2013-1-23,32.7,17.5,5.6,17.2,7.5,-3.2,74,65,51,30.37,30.02,14,2,14,0.00
2013-1-24,20.4,11.3,2.3,9.7,-0.8,-6.0,71,59,40,30.53,30.14,12,3,13,0.00
2013-1-25,35.7,23.4,10.1,22.8,12.7,4.5,78,64,50,30.17,29.90,17,3,17,0.00
2013-1-26,31.2,18.9,2.2,15.7,8.6,-0.6,90,66,43,30.28,30.13,13,2,14,0.00
2013-1-27,38.8,32.2,29.0,38.8,27.5,15.7,100,84,57,30.13,29.63,19,4,19,0.16
2013-1-28,42.6,37.4,33.3,42.5,37.4,33.3,100,100,99,29.80,29.50,15,2,16,0.03
2013-1-29,58.2,42.9,33.1,57.0,42.4,32.9,100,99,90,29.52,29.32,17,2,17,0.35
2013-1-30,33.3,24.0,13.4,33.0,22.8,10.7,99,95,87,29.65,29.22,11,2,12,0.00
2013-1-31,15.1,6.5,-2.1,12.3,1.8,-6.5,89,81,71,30.20,29.65,11,2,14,0.00
2013-2-1,16.7,3.3,-7.1,13.0,-2.5,-11.4,85,77,61,30.29,29.97,12,2,12,0.00
2013-2-2,24.3,17.9,12.1,20.6,13.5,8.5,93,83,67,30.03,29.86,12,2,12,0.00
2013-2-3,24.0,19.9,13.9,20.0,15.7,9.4,95,84,70,30.01,29.76,14,3,14,0.00
2013-2-4,28.5,21.3,8.9,21.1,16.9,7.1,95,83,69,29.86,29.67,12,1,12,0.02
2013-2-5,39.7,27.3,14.1,33.1,23.7,12.2,94,86,76,29.99,29.67,13,2,13,0.08
2013-2-6,41.0,29.2,11.1,34.9,25.2,9.7,97,86,68,30.03,29.84,12,2,12,0.00
2013-2-7,37.9,34.9,29.8,37.4,33.7,28.0,99,95,85,29.99,29.76,13,2,13,0.27
2013-2-8,31.7,29.1,27.5,28.0,26.2,24.8,94,89,81,30.22,29.99,10,2,11,0.00
2013-2-9,32.3,29.2,26.7,29.5,26.8,24.2,96,91,86,30.19,29.83,17,4,17,0.00
2013-2-10,46.9,38.0,30.7,46.9,36.5,29.3,100,95,73,29.83,29.17,28,7,28,0.28
2013-2-11,33.9,29.9,25.9,29.9,24.9,21.4,86,81,76,29.96,29.35,28,7,28,0.00
2013-2-12,40.4,30.9,23.9,28.9,24.3,19.3,89,77,59,29.99,29.73,15,2,15,0.00
2013-2-13,45.7,35.8,23.5,36.1,30.4,22.5,98,81,67,29.73,29.50,11,2,11,0.00
2013-2-14,46.3,35.4,23.0,34.2,30.4,15.8,96,82,61,29.95,29.50,16,3,18,0.00
2013-2-15,32.7,23.0,15.4,22.0,15.5,8.9,84,73,56,30.14,29.95,15,2,15,0.00
2013-2-16,31.4,18.2,12.1,20.3,13.0,7.7,95,80,60,30.14,30.02,12,1,12,0.00
2013-2-17,37.7,26.1,12.4,25.5,18.9,10.4,95,75,56,30.03,29.63,21,5,21,0.00
2013-2-18,50.6,33.1,15.0,37.5,27.7,8.4,93,81,59,29.66,29.39,18,4,18,0.01
2013-2-19,22.4,12.4,3.5,10.4,4.7,-1.9,82,72,57,30.21,29.66,18,3,18,0.00
2013-2-20,31.6,14.9,1.8,15.4,6.8,-2.7,89,72,45,30.32,30.21,8,1,9,0.00
2013-2-21,26.3,20.2,9.5,24.6,17.0,7.3,97,87,76,30.25,29.77,15,2,15,0.00
2013-2-22,31.2,26.0,22.0,28.1,23.9,19.1,97,92,84,29.81,29.64,13,4,13,0.00
2013-2-23,30.0,20.7,5.1,22.4,16.7,2.8,93,85,72,29.86,29.79,12,3,12,0.01
2013-2-24,36.2,18.6,2.4,26.9,14.6,0.1,96,85,66,29.99,29.86,8,1,8,0.07
2013-2-25,40.7,30.0,18.5,32.3,26.4,17.0,97,87,69,29.99,29.78,8,1,8,0.02
2013-2-26,36.6,32.3,30.0,31.1,29.4,27.4,98,89,77,29.78,29.50,13,2,13,0.00
2013-2-27,35.3,31.5,29.3,32.3,30.1,28.5,98,95,87,29.74,29.55,9,1,12,0.09
2013-2-28,39.4,31.4,27.0,31.8,28.3,25.7,96,89,73,29.98,29.74,10,1,10,0.15
2013-3-1,35.9,27.3,15.4,25.7,21.4,11.7,96,79,54,30.15,29.98,8,1,8,0.07
2013-3-2,34.7,17.1,4.7,23.0,11.5,2.6,94,80,56,30.17,30.07,5,0,5,0.00
2013-3-3,33.8,19.1,0.8,19.5,11.7,-1.7,92,75,45,30.08,29.90,10,2,10,0.00
2013-3-4,32.4,27.3,22.9,27.0,23.5,17.4,95,86,71,29.93,29.75,21,7,22,0.01
2013-3-5,34.4,29.2,24.4,29.5,26.4,21.6,97,89,78,30.06,29.78,13,1,13,0.19
2013-3-6,34.6,21.4,2.9,23.7,17.2,0.5,93,84,62,30.24,30.06,9,1,9,0.02
2013-3-7,31.5,16.3,-2.0,25.3,12.6,-4.7,94,86,74,30.30,30.22,10,2,10,0.04
2013-3-8,42.1,30.3,17.0,33.1,26.3,15.0,95,85,69,30.26,30.04,17,5,17,0.01
2013-3-9,40.1,37.1,34.0,40.0,36.1,31.9,100,96,89,30.04,29.55,17,5,17,1.17
2013-3-10,39.6,36.6,34.1,39.6,36.6,34.1,100,100,99,29.59,29.39,7,0,7,0.65
2013-3-11,34.2,31.5,27.0,34.2,30.2,24.3,100,95,86,29.75,29.47,12,1,12,0.00
2013-3-12,37.9,27.9,23.1,31.2,24.1,19.1,92,86,71,30.02,29.75,14,3,15,0.00
2013-3-13,38.4,26.9,18.2,25.3,19.5,15.2,91,75,52,30.26,30.02,11,1,11,0.01
2013-3-14,51.2,33.8,20.0,36.5,27.3,17.6,96,78,53,30.21,29.92,17,2,18,0.00
2013-3-15,46.4,35.2,26.7,40.5,32.9,26.0,99,92,78,29.92,29.59,12,1,12,0.00
2013-3-16,35.9,32.2,26.3,33.6,29.6,22.3,99,90,82,30.04,29.62,14,1,15,0.00
2013-3-17,36.6,29.5,22.9,28.2,23.4,17.7,88,78,63,30.06,29.77,17,5,17,0.00
2013-3-18,33.6,27.4,17.4,32.5,24.3,11.4,97,88,77,29.78,29.53,23,5,23,0.02
2013-3-19,31.7,21.5,12.6,22.0,15.0,7.6,87,76,61,30.06,29.76,17,4,18,0.04
2013-3-20,28.1,18.8,11.4,17.4,11.2,5.6,81,72,59,30.11,29.99,14,2,16,0.01
2013-3-21,36.6,21.2,5.9,23.0,13.6,3.6,93,74,48,30.01,29.89,6,0,7,0.00
2013-3-22,44.7,28.6,12.9,27.4,20.5,11.5,96,74,41,29.95,29.88,5,0,6,0.00
2013-3-23,47.1,34.2,22.2,30.5,26.1,20.9,97,74,44,29.98,29.87,7,0,8,0.00
2013-3-24,33.4,30.4,28.0,30.6,28.8,27.0,97,94,87,29.91,29.67,10,1,10,0.08
2013-3-25,39.9,32.0,27.6,31.6,27.3,22.9,96,83,69,30.05,29.75,14,2,14,0.05
2013-3-26,46.2,33.2,25.5,35.2,28.0,23.8,94,82,57,30.17,30.05,10,1,10,0.00
2013-3-27,50.0,35.2,23.0,35.2,27.2,22.3,99,76,43,30.22,30.14,7,0,7,0.00
2013-3-28,54.7,37.5,22.6,38.1,30.0,21.9,98,77,49,30.22,30.11,9,1,9,0.00
2013-3-29,59.9,42.6,26.3,41.6,33.7,25.5,99,74,41,30.16,30.03,10,1,10,0.00
2013-3-30,52.5,45.2,38.0,46.9,40.5,32.1,99,84,72,30.03,29.71,15,3,16,0.04
2013-3-31,53.7,40.1,30.9,45.4,34.8,24.4,100,83,55,29.88,29.69,14,2,16,0.00
2013-4-1,43.9,32.3,24.0,29.5,23.4,20.3,88,71,48,30.12,29.88,15,1,15,0.00
2013-4-2,48.4,32.5,19.5,30.6,23.2,18.1,97,72,41,30.22,30.12,12,1,12,0.00
2013-4-3,48.8,33.0,18.2,27.9,20.7,16.4,97,66,29,30.30,30.13,13,1,13,0.00
2013-4-4,62.9,43.2,24.3,44.6,31.3,20.4,90,65,40,30.14,29.86,14,2,14,0.00
2013-4-5,54.6,42.8,26.6,34.3,30.2,25.4,97,65,36,30.07,29.82,15,3,16,0.00
2013-4-6,65.5,51.5,39.6,52.8,39.6,26.6,88,65,47,29.81,29.40,22,6,22,0.06
2013-4-7,63.9,49.3,32.7,46.1,41.0,31.4,98,75,49,29.81,29.58,14,2,16,0.00
2013-4-8,74.2,58.6,45.1,59.7,50.7,44.0,99,77,48,29.68,29.47,17,2,18,0.61
2013-4-9,55.2,48.7,42.3,54.4,47.8,41.6,99,96,91,29.73,29.56,15,2,15,1.09
2013-4-10,42.3,38.5,35.6,41.8,37.9,35.1,99,98,96,29.88,29.51,13,2,14,1.12
2013-4-11,47.4,40.6,36.3,46.1,39.7,34.5,100,97,91,29.58,29.41,14,3,16,0.26
2013-4-12,40.4,37.2,34.9,36.4,34.1,31.0,98,89,78,29.75,29.42,15,3,15,0.00
2013-4-13,52.1,39.8,32.3,39.9,33.5,27.8,93,79,58,29.84,29.74,14,3,15,0.00
2013-4-14,73.8,52.2,38.1,56.8,44.3,35.4,98,78,39,29.77,29.30,23,5,24,0.66
2013-4-15,54.1,45.3,38.9,51.7,40.6,33.8,99,84,65,29.88,29.44,14,2,16,0.03
2013-4-16,57.1,43.2,30.9,45.0,36.0,29.1,95,77,53,30.08,29.85,11,2,12,0.00
2013-4-17,47.2,45.8,41.1,46.9,42.4,37.6,100,88,72,30.09,29.58,22,4,22,2.67
2013-4-18,57.3,45.8,35.6,57.3,45.0,32.9,100,97,90,29.59,29.23,23,6,23,0.88
2013-4-19,38.4,35.1,31.7,33.2,30.7,27.9,93,84,73,29.88,29.41,21,6,22,0.00
2013-4-20,52.9,39.3,27.6,36.9,29.4,23.0,95,70,33,30.19,29.88,7,1,7,0.00
2013-4-21,61.9,48.7,38.5,45.7,37.8,29.3,79,66,53,30.22,30.00,23,6,23,0.00
2013-4-22,67.3,56.2,48.8,50.1,44.5,40.9,93,67,43,30.03,29.78,18,3,18,0.01
2013-4-23,51.4,40.5,35.8,49.7,36.0,29.8,95,84,73,29.91,29.78,15,4,15,0.00
2013-4-24,54.9,43.1,29.0,40.8,31.8,26.0,95,68,39,29.98,29.88,14,3,14,0.04
2013-4-25,58.4,45.9,32.9,40.6,32.2,23.4,92,62,31,30.13,29.92,15,3,15,0.00
2013-4-26,68.8,57.6,44.9,51.0,43.0,31.8,83,59,45,30.07,29.98,22,5,22,0.00
2013-4-27,67.3,56.4,42.6,51.6,47.6,41.4,98,74,52,30.06,29.81,14,1,14,0.00
2013-4-28,73.9,59.0,39.6,55.3,47.9,39.1,100,71,41,29.82,29.61,8,1,9,0.00
2013-4-29,80.0,65.9,53.1,63.0,56.6,50.4,93,73,51,29.66,29.44,17,2,17,0.00
2013-4-30,87.9,75.6,63.2,60.9,55.5,48.4,89,54,30,29.68,29.43,26,5,26,0.04
2013-5-1,80.2,61.3,44.3,61.8,50.5,38.8,89,70,46,30.04,29.68,19,2,19,0.00
2013-5-2,44.2,39.1,34.7,39.1,36.5,33.6,96,91,80,30.17,30.02,17,3,18,0.32
2013-5-3,42.5,37.3,33.7,42.2,36.5,32.6,99,97,95,30.12,29.79,13,2,13,1.19
2013-5-4,71.5,56.9,42.5,64.4,54.8,42.2,100,93,72,29.87,29.75,8,1,8,0.27
2013-5-5,78.9,62.5,49.5,63.3,54.9,49.2,100,80,41,29.88,29.80,10,1,10,0.01
2013-5-6,79.7,63.1,47.7,60.2,52.7,46.9,100,73,36,29.90,29.81,7,0,7,0.00
2013-5-7,81.8,63.0,45.6,61.5,50.5,44.3,100,69,32,29.88,29.80,7,0,7,0.00
2013-5-8,79.5,63.1,47.3,60.5,53.7,46.5,100,76,38,29.85,29.77,11,1,11,0.02
2013-5-9,70.1,62.6,59.3,63.8,60.3,58.1,98,92,74,29.77,29.62,9,1,9,0.06
2013-5-10,65.0,54.4,48.9,58.1,50.5,46.9,96,87,70,29.83,29.66,12,2,12,0.00
2013-5-11,59.1,51.4,36.9,50.4,38.0,23.6,97,64,34,29.98,29.74,28,5,28,0.01
2013-5-12,61.8,46.5,32.1,40.1,32.5,28.3,90,62,33,30.06,29.95,16,2,16,0.00
2013-5-13,71.0,54.0,30.6,46.0,37.9,29.4,99,60,30,30.01,29.71,10,2,11,0.00
2013-5-14,95.0,76.7,56.6,65.5,56.6,45.1,85,53,27,29.71,29.39,17,4,18,0.00
2013-5-15,84.5,71.5,58.1,56.6,51.0,44.0,76,50,26,29.70,29.47,13,2,13,0.00
2013-5-16,84.3,69.1,50.9,58.3,52.3,45.2,94,60,28,29.75,29.65,10,1,12,0.00
2013-5-17,82.0,71.6,62.4,65.2,61.2,56.9,96,71,49,29.78,29.68,11,2,13,0.00
2013-5-18,83.8,71.1,60.0,68.5,63.0,57.8,97,77,53,29.81,29.65,13,3,13,0.00
2013-5-19,83.8,73.6,63.2,73.9,67.0,59.4,98,81,57,29.68,29.38,36,5,36,0.38
2013-5-20,81.2,71.1,61.3,65.6,62.6,59.6,100,77,54,29.51,29.39,22,4,22,0.02
2013-5-21,74.6,66.4,56.5,62.2,59.3,55.1,95,79,55,29.50,29.40,14,3,15,0.00
2013-5-22,66.5,59.5,54.4,59.8,56.4,53.6,99,90,71,29.61,29.46,12,2,12,0.05
2013-5-23,71.5,60.0,47.1,58.2,51.5,42.2,99,76,45,30.10,29.60,12,2,12,0.03
2013-5-24,69.4,55.4,38.1,47.4,41.5,37.3,99,64,33,30.26,30.07,12,2,13,0.00
2013-5-25,59.4,52.1,48.1,50.6,48.5,44.0,97,88,58,30.17,30.04,14,4,14,0.93
2013-5-26,57.9,52.4,49.1,56.5,51.1,47.1,99,95,90,30.07,29.84,25,4,25,1.17
2013-5-27,69.7,61.4,56.0,67.0,60.6,55.6,100,97,90,29.88,29.60,11,2,11,0.05
2013-5-28,77.3,67.2,61.0,73.4,65.8,59.8,100,95,78,29.61,29.48,9,1,9,0.87
2013-5-29,82.3,71.1,61.6,73.3,65.8,58.9,95,84,70,29.69,29.54,24,5,25,0.04
2013-5-30,79.7,71.0,63.2,69.4,65.3,60.9,99,83,66,29.59,29.42,35,9,35,0.50
2013-5-31,76.4,69.2,61.9,67.0,62.6,58.9,97,81,59,29.56,29.47,25,7,25,0.00
2013-6-1,71.7,66.7,62.0,67.0,61.1,53.9,98,83,58,29.63,29.43,18,6,19,0.01
2013-6-2,65.7,57.7,49.3,59.9,49.0,45.2,93,74,51,29.88,29.63,21,5,21,0.00
2013-6-3,72.3,60.3,43.6,53.7,47.7,43.3,100,67,41,29.94,29.82,13,2,14,0.00
2013-6-4,64.5,60.3,54.8,58.7,53.1,49.0,88,77,64,29.99,29.84,16,4,16,0.07
2013-6-5,68.0,61.6,57.0,63.8,59.5,54.2,99,93,81,29.88,29.73,16,2,16,0.67
2013-6-6,69.3,62.1,56.7,62.1,59.3,56.6,100,91,67,29.78,29.70,14,2,14,0.01
2013-6-7,70.3,61.8,55.3,58.4,56.5,54.3,98,84,61,29.82,29.74,8,1,9,0.00
2013-6-8,75.7,66.0,53.1,60.8,55.9,52.3,100,73,46,29.78,29.70,14,3,14,0.00
2013-6-9,68.3,65.9,60.3,64.0,60.6,55.3,97,84,68,29.70,29.56,18,6,18,0.05
2013-6-10,79.7,67.0,57.7,66.1,62.1,57.4,100,86,57,29.70,29.58,9,1,10,0.01
2013-6-11,87.5,73.9,59.4,71.5,66.1,58.5,99,78,55,29.74,29.59,16,2,16,0.00
2013-6-12,88.4,77.9,68.7,75.0,70.7,65.9,96,80,62,29.70,29.40,24,5,25,0.09
2013-6-13,84.3,73.1,62.2,67.5,61.8,55.7,96,71,41,29.85,29.53,18,4,18,0.00
2013-6-14,79.3,71.2,61.3,62.8,60.0,56.2,91,69,53,29.93,29.70,21,6,21,0.00
2013-6-15,81.0,72.8,65.0,72.3,67.1,62.6,98,83,65,29.84,29.63,23,5,25,0.13
2013-6-16,88.4,75.9,66.3,70.2,60.9,46.1,96,65,24,29.76,29.71,14,3,15,0.00
2013-6-17,91.3,76.4,58.9,62.0,57.7,51.8,89,56,27,29.77,29.67,16,2,16,0.00
2013-6-18,82.3,71.4,61.3,61.1,58.7,56.6,88,66,45,29.86,29.71,16,2,16,0.00
2013-6-19,84.6,72.1,57.6,61.7,57.2,51.1,82,61,41,29.93,29.83,15,4,15,0.00
2013-6-20,69.2,65.8,63.4,60.2,59.3,58.6,85,80,74,29.88,29.87,4,0,4,0.00
2013-6-21,83.8,76.2,65.0,72.9,69.4,62.5,99,80,65,29.92,29.69,26,7,26,2.40
2013-6-22,91.6,81.3,69.7,77.2,73.2,67.3,95,78,58,29.83,29.66,26,7,26,0.17
2013-6-23,86.3,77.1,69.6,74.8,68.1,63.6,92,75,48,29.82,29.64,31,6,32,0.00
2013-6-24,73.8,69.2,66.8,71.0,67.7,65.0,100,95,78,29.84,29.66,26,4,30,1.90
2013-6-25,89.0,77.6,68.1,76.5,72.2,65.6,99,85,63,29.70,29.54,19,4,19,0.01
2013-6-26,88.7,76.0,65.7,78.3,71.9,65.0,100,88,67,29.60,29.48,28,2,28,1.69
2013-6-27,86.5,77.7,67.1,72.9,68.6,62.7,96,75,53,29.68,29.60,19,3,19,0.00
2013-6-28,82.8,74.2,66.4,65.4,62.3,60.3,86,68,49,29.65,29.52,24,4,28,0.00
2013-6-29,74.8,67.5,63.4,66.4,63.1,61.1,97,86,68,29.68,29.50,16,4,22,0.05
2013-6-30,79.5,68.5,58.9,61.3,58.0,53.2,91,71,41,29.88,29.68,17,4,17,0.00
2013-7-1,81.0,69.0,56.4,58.5,55.1,51.7,90,64,38,29.94,29.88,16,2,16,0.00
2013-7-2,84.2,71.0,56.6,62.5,58.2,55.4,97,67,42,29.94,29.83,12,2,12,0.00
2013-7-3,83.3,69.5,54.7,58.6,54.9,49.4,97,64,32,29.90,29.82,8,1,9,0.00
2013-7-4,85.5,73.2,58.3,66.0,58.8,54.0,89,63,38,29.87,29.79,13,2,13,0.00
2013-7-5,87.0,76.2,64.2,66.6,63.0,60.1,89,66,42,29.85,29.76,18,4,19,0.00
2013-7-6,88.8,78.5,65.9,69.1,66.3,63.1,91,68,48,29.82,29.72,16,5,18,0.00
2013-7-7,89.8,80.6,68.5,73.4,69.2,65.5,91,69,51,29.77,29.69,18,5,20,0.00
2013-7-8,90.3,82.7,76.0,77.0,72.5,68.2,84,72,61,29.78,29.70,14,4,15,0.01
2013-7-9,89.3,80.0,73.1,79.2,75.3,72.1,99,86,66,29.80,29.67,17,3,17,0.98
2013-7-10,81.3,74.5,63.3,76.8,64.9,57.0,95,74,47,29.86,29.68,18,3,19,0.00
2013-7-11,83.0,74.5,59.6,64.8,60.7,55.8,96,65,43,29.94,29.86,12,2,12,0.00
2013-7-12,84.2,72.4,58.8,61.6,59.0,53.0,96,66,38,29.95,29.86,17,4,17,0.00
2013-7-13,79.7,70.0,62.8,68.9,62.8,58.9,89,78,63,29.95,29.87,14,2,15,0.00
2013-7-14,86.4,75.1,62.8,69.8,64.9,60.6,94,73,44,30.00,29.92,18,3,19,0.00
2013-7-15,89.8,80.0,66.9,75.9,72.0,66.0,99,78,55,30.06,29.98,15,3,16,0.00
2013-7-16,92.6,83.3,73.7,75.7,74.1,72.2,96,75,56,30.08,30.02,12,2,12,0.00
2013-7-17,97.2,85.6,74.9,77.2,74.1,71.5,91,70,47,30.11,29.98,9,2,10,0.00
2013-7-18,93.7,85.2,75.4,76.4,72.7,69.8,92,68,48,29.98,29.73,19,4,19,0.00
2013-7-19,93.2,83.0,71.3,76.9,70.7,65.5,84,67,52,29.74,29.59,20,6,20,0.00
2013-7-20,90.8,75.3,60.5,69.4,64.6,59.8,98,72,42,29.77,29.68,11,2,11,0.00
2013-7-21,84.1,73.7,65.5,71.7,66.9,60.8,95,80,61,29.74,29.63,17,2,17,0.01
2013-7-22,89.9,73.8,61.4,76.2,68.0,61.1,100,84,59,29.69,29.52,15,3,29,0.36
2013-7-23,78.3,69.4,59.8,65.9,60.8,56.8,96,76,50,29.81,29.59,16,3,16,0.00
2013-7-24,78.4,66.6,53.6,61.3,57.8,53.3,100,76,45,29.90,29.81,8,1,8,0.00
2013-7-25,84.8,72.0,58.4,67.6,62.4,56.8,97,74,49,29.89,29.79,16,4,16,1.13
2013-7-26,79.5,69.2,60.0,70.5,62.8,56.3,99,82,52,29.88,29.74,22,4,22,0.49
2013-7-27,68.5,58.6,51.8,56.4,51.4,47.1,96,78,52,29.85,29.79,20,3,20,0.00
2013-7-28,73.1,61.6,52.5,56.1,52.8,49.6,93,74,51,29.89,29.75,13,2,14,0.00
2013-7-29,77.9,64.9,49.1,59.6,55.0,48.8,100,74,46,29.98,29.89,12,2,13,0.00
2013-7-30,67.3,65.7,63.9,65.3,62.7,58.2,99,90,77,29.94,29.86,14,3,14,0.01
2013-7-31,83.3,71.6,64.0,69.3,65.9,62.4,100,84,58,29.91,29.81,12,2,12,0.00
2013-8-1,83.6,71.5,58.3,68.5,62.1,56.3,100,76,45,29.88,29.71,11,1,14,0.01
2013-8-2,84.9,72.1,63.3,70.2,65.3,62.4,98,81,53,29.81,29.68,12,2,12,0.06
2013-8-3,79.3,68.3,56.5,63.1,58.8,53.6,100,75,44,29.99,29.81,10,1,10,0.01
2013-8-4,80.0,68.1,52.5,60.7,56.7,51.8,100,70,41,30.03,29.90,11,1,11,0.00
2013-8-5,77.8,68.3,60.8,71.1,64.6,57.4,98,88,77,29.90,29.65,17,4,18,1.05
2013-8-6,88.3,77.6,65.1,74.9,70.9,64.8,100,82,55,29.70,29.59,22,2,22,0.00
2013-8-7,80.8,73.2,62.7,71.1,66.8,60.8,97,81,63,29.80,29.59,17,2,19,0.00
2013-8-8,83.7,69.7,56.6,67.2,62.2,55.6,99,79,50,29.84,29.78,10,1,10,0.00
2013-8-9,80.7,70.1,60.9,69.1,64.0,60.1,100,82,58,29.92,29.81,14,2,14,0.00
2013-8-10,80.2,68.5,54.0,64.2,59.1,52.8,97,75,47,30.01,29.92,12,1,12,0.00
2013-8-11,83.0,74.2,64.9,69.2,64.2,60.0,88,72,57,29.96,29.81,15,4,16,0.00
2013-8-12,81.6,71.2,59.9,69.2,64.9,57.8,99,82,51,29.84,29.77,15,2,15,0.07
2013-8-13,74.2,64.2,53.0,61.9,55.5,49.8,96,76,45,30.00,29.83,14,2,15,0.00
2013-8-14,79.3,63.0,48.0,57.7,51.8,47.7,99,72,37,30.06,29.96,8,1,8,0.00
2013-8-15,78.5,67.9,55.9,59.6,55.1,51.2,95,67,41,29.99,29.92,9,1,9,0.00
2013-8-16,80.8,65.8,50.2,61.7,56.3,49.9,100,76,40,30.03,29.96,9,1,9,0.00
2013-8-17,81.8,67.8,52.3,63.9,57.6,51.8,99,73,42,30.05,29.97,13,2,13,0.00
2013-8-18,82.9,68.4,52.1,62.5,58.3,51.8,100,74,41,30.03,29.90,15,2,15,0.00
2013-8-19,83.6,71.6,59.0,66.9,62.6,57.9,98,76,47,29.92,29.83,16,2,17,0.00
2013-8-20,88.2,77.2,66.7,69.5,66.8,63.7,92,72,51,29.87,29.77,20,5,20,0.00
2013-8-21,90.8,80.4,70.2,72.2,69.0,65.1,85,69,52,29.83,29.75,19,4,19,0.00
2013-8-22,81.0,74.0,65.5,70.7,68.6,64.7,98,84,70,29.92,29.80,14,3,14,0.07
2013-8-23,83.3,72.1,60.3,69.3,65.3,60.3,100,81,58,29.98,29.90,15,3,15,0.01
2013-8-24,89.0,76.3,64.4,74.7,67.9,59.2,87,76,61,30.02,29.91,19,5,20,0.00
2013-8-25,92.4,81.9,71.3,74.1,69.0,64.4,89,67,42,30.00,29.89,17,5,21,0.00
2013-8-26,95.8,84.2,73.5,75.6,70.5,65.2,81,65,46,29.93,29.76,15,4,15,0.00
2013-8-27,96.4,85.4,75.5,74.7,71.7,69.5,85,65,47,29.78,29.64,21,6,21,0.00
2013-8-28,94.3,83.0,73.1,81.6,75.4,69.3,93,79,62,29.81,29.69,9,2,9,0.00
2013-8-29,93.5,82.6,72.7,77.5,74.4,71.5,97,78,52,29.85,29.74,14,4,14,0.00
2013-8-30,99.5,85.7,74.8,79.1,74.9,70.5,98,73,41,29.74,29.56,13,3,13,0.00
2013-8-31,87.3,77.1,68.3,73.3,71.0,67.1,98,82,63,29.65,29.56,15,2,15,0.00
2013-9-1,87.7,74.8,62.4,73.6,66.7,59.5,99,78,46,29.73,29.58,19,3,19,0.00
2013-9-2,73.9,63.8,51.1,59.9,56.6,49.9,98,80,54,29.87,29.73,17,3,17,0.00
2013-9-3,80.7,61.8,45.8,58.2,53.0,45.4,99,77,39,29.94,29.85,9,1,9,0.01
2013-9-4,55.6,54.4,53.1,53.5,53.0,50.8,96,95,93,29.91,29.88,0,0,0,0.00
2013-9-9,99.7,92.3,83.5,66.9,65.3,64.2,53,42,33,29.66,29.58,21,6,21,0.00
2013-9-10,97.5,85.7,75.4,69.9,64.6,61.1,76,51,31,29.78,29.66,21,6,22,0.00
2013-9-11,88.1,75.0,65.7,70.4,66.6,62.3,92,77,50,29.89,29.78,13,1,14,0.01
2013-9-12,65.6,63.9,61.9,62.8,61.1,59.6,93,91,88,29.85,29.84,3,0,3,0.00
2013-9-18,88.0,77.1,62.8,73.3,68.4,61.9,97,76,56,29.80,29.62,21,6,21,0.00
2013-9-19,89.5,76.5,65.8,70.9,68.4,65.3,100,78,52,29.66,29.49,35,6,35,0.35
2013-9-20,66.9,61.7,52.4,66.9,57.1,49.9,100,86,68,29.75,29.62,15,2,17,0.02
2013-9-21,70.2,56.1,45.6,52.3,49.0,45.1,98,80,49,29.82,29.74,14,1,15,0.00
2013-9-22,74.0,58.7,44.9,54.5,50.0,44.6,100,76,48,29.87,29.76,13,2,15,0.01
2013-9-23,74.1,62.1,48.5,54.5,50.8,46.9,94,69,45,29.86,29.75,21,5,21,0.00
2013-9-24,74.8,61.0,49.7,57.0,52.0,47.4,92,74,47,29.80,29.71,14,3,15,0.00
2013-9-25,78.3,63.4,48.7,56.8,53.2,47.6,97,72,45,29.80,29.71,10,2,15,0.00
2013-9-26,83.3,67.9,53.3,63.9,57.6,51.1,94,72,48,29.82,29.75,19,4,19,0.00
2013-9-27,83.6,70.0,55.9,65.4,58.1,52.1,87,68,47,29.88,29.76,23,5,23,0.00
2013-9-28,74.5,63.8,50.7,66.8,58.2,50.4,99,83,60,29.84,29.65,18,5,20,0.38
2013-9-29,72.2,57.8,41.5,55.0,48.1,41.5,100,74,41,29.92,29.80,14,2,14,0.01
2013-9-30,77.3,62.6,47.4,58.8,50.3,44.6,91,67,36,29.80,29.61,19,4,20,0.00
2013-10-1,83.7,69.2,57.5,62.2,58.9,49.6,96,72,45,29.80,29.65,18,4,19,0.00
2013-10-2,83.8,68.2,50.0,63.6,53.1,41.0,91,62,31,29.89,29.72,18,4,20,0.00
2013-10-3,81.8,71.3,62.9,70.4,66.1,61.7,99,84,66,29.72,29.60,16,2,16,0.02
2013-10-4,74.3,68.3,61.9,71.8,66.1,61.6,100,93,85,29.79,29.61,24,4,24,0.54
2013-10-5,73.3,62.6,44.5,68.5,55.5,40.4,94,78,50,29.70,29.61,16,3,16,0.00
2013-10-6,50.8,45.8,40.2,46.0,42.0,38.6,98,87,68,29.67,29.56,13,2,13,0.04
2013-10-7,75.1,57.0,43.3,50.3,46.7,40.6,98,74,31,29.89,29.66,18,3,19,0.00
2013-10-8,78.0,61.6,45.5,52.0,47.0,43.5,96,64,31,29.95,29.85,20,3,20,0.00
2013-10-9,74.5,62.0,49.8,51.9,48.0,44.5,89,62,36,29.99,29.90,16,3,16,0.00
2013-10-10,51.3,47.5,44.7,45.7,44.2,42.4,95,89,81,29.93,29.92,0,0,0,0.00
2013-10-11,76.5,73.2,70.4,57.6,55.9,54.2,61,55,50,29.66,29.63,26,9,26,0.00
2013-10-12,70.4,60.4,45.4,60.7,45.1,34.1,89,59,31,30.05,29.65,20,4,20,0.01
2013-10-13,67.3,48.8,34.3,41.9,35.6,30.0,95,65,29,30.28,30.04,10,1,10,0.00
2013-10-14,65.2,50.5,32.6,44.2,39.1,31.3,98,68,43,30.24,29.82,22,5,24,0.00
2013-10-15,60.2,54.8,49.6,58.7,48.0,40.9,97,78,58,29.82,29.64,24,9,24,0.18
2013-10-16,50.6,48.1,46.5,47.5,45.4,44.3,96,90,83,29.82,29.69,20,4,20,0.00
2013-10-17,61.7,49.6,43.2,45.1,40.5,34.6,95,74,38,29.79,29.66,16,2,17,0.00
2013-10-18,52.3,46.1,42.2,43.2,37.3,31.6,91,72,48,29.84,29.70,16,3,16,0.00
2013-10-19,54.6,43.4,36.1,41.8,36.4,31.8,91,77,53,29.79,29.62,23,5,23,0.00
2013-10-20,57.9,46.2,33.0,47.9,39.5,31.1,95,78,63,29.71,29.55,17,4,17,0.00
2013-10-21,46.5,39.1,28.6,40.2,29.1,23.2,92,69,45,29.87,29.71,23,3,23,0.00
2013-10-22,38.5,33.5,25.6,36.9,31.7,23.9,97,93,86,29.89,29.79,9,1,10,0.25
2013-10-23,43.1,35.4,27.5,35.7,30.2,25.1,97,83,51,29.95,29.87,14,2,14,0.02
2013-10-24,41.4,35.6,31.2,27.4,25.8,23.5,81,68,51,30.15,29.95,23,3,23,0.00
2013-11-7,33.9,32.1,29.4,29.6,27.7,25.2,86,84,81,30.14,30.13,6,2,6,0.00
2013-11-8,50.8,38.3,22.7,38.8,29.4,21.3,97,72,47,30.14,29.64,31,7,31,0.00
2013-11-9,54.7,47.3,36.5,41.9,38.0,31.1,84,70,56,30.07,29.65,26,6,26,0.00
2013-11-10,46.6,38.9,26.5,33.4,30.6,24.3,93,73,57,30.24,30.02,11,3,12,0.00
2013-11-11,46.1,33.6,17.5,36.3,26.7,12.7,95,76,63,30.50,29.93,22,6,22,0.00
2013-11-12,29.4,19.3,11.2,17.8,13.2,8.2,89,78,55,30.68,30.49,13,2,13,0.00
2013-11-13,46.6,32.9,17.5,20.9,15.8,12.9,83,52,27,30.49,29.94,25,7,25,0.00
2013-11-14,50.9,41.7,34.6,31.7,27.4,20.8,66,57,44,29.94,29.75,18,6,18,0.00
2013-11-15,57.0,45.5,34.0,37.7,33.8,29.0,86,65,45,29.78,29.64,15,4,15,0.00
2013-11-16,62.3,53.1,40.6,58.1,50.0,36.1,98,89,77,29.65,29.21,32,9,32,0.32
2013-11-17,57.8,52.3,45.3,56.6,50.7,42.8,99,94,78,29.33,29.10,24,5,28,0.89
2013-11-19,38.5,38.2,37.9,29.8,29.5,29.1,72,71,70,30.02,29.99,21,10,21,0.00
2013-11-20,39.1,37.4,35.7,37.1,33.0,29.4,96,85,71,30.00,29.84,25,9,28,0.13
2013-11-21,42.6,36.9,31.7,39.4,35.8,31.3,100,96,87,30.19,29.91,17,3,17,0.02
2013-11-22,31.8,26.5,16.6,31.3,23.3,12.9,98,88,74,30.43,30.19,20,5,20,0.00
2013-11-23,19.8,15.0,6.6,16.6,9.3,3.8,90,78,63,30.66,30.39,24,5,26,0.00
2013-11-24,27.9,17.4,4.8,13.2,7.8,2.5,94,68,40,30.64,30.18,21,4,21,0.00
2013-11-25,33.9,28.1,22.3,28.3,23.4,12.8,94,83,62,30.18,29.94,21,7,21,0.00
2013-11-26,31.6,23.2,10.9,26.1,16.3,5.7,95,75,55,30.17,29.95,23,5,27,0.00
2013-11-27,25.4,16.0,6.9,13.8,9.1,3.3,86,74,56,30.24,30.04,10,2,10,0.00
2013-11-28,30.4,21.5,13.0,21.8,15.8,9.9,91,79,67,30.39,29.97,15,2,15,0.00
2013-11-29,34.4,23.1,7.5,22.9,17.0,5.5,94,78,61,30.44,30.16,18,3,18,0.00
2013-11-30,48.4,35.4,28.2,36.1,29.3,22.5,97,79,59,30.16,29.90,15,3,15,0.00
2013-12-1,43.9,34.2,25.6,33.6,30.2,24.1,96,86,64,30.01,29.80,9,1,9,0.00
2013-12-2,40.7,36.6,31.5,37.1,34.0,29.2,96,90,84,29.81,29.48,18,4,18,0.03
2013-12-3,42.9,39.5,36.7,42.9,39.3,35.7,100,99,95,29.51,29.41,16,3,17,0.00
2013-12-4,49.7,39.0,23.3,49.7,38.6,20.8,100,98,90,29.69,29.28,28,6,30,0.04
2013-12-5,23.3,16.4,11.0,20.9,11.2,5.7,91,80,71,30.24,29.67,29,8,29,0.00
2013-12-6,14.8,9.3,4.4,6.2,3.4,-0.6,83,76,67,30.52,30.22,17,3,19,0.00
2013-12-7,4.7,0.8,-1.4,0.6,-3.3,-5.1,85,82,79,30.65,30.52,11,2,12,0.00
2013-12-8,20.1,19.0,16.1,18.9,17.2,10.4,95,93,78,30.19,29.88,18,4,19,0.00
2013-12-9,17.5,4.6,-5.5,16.0,0.8,-9.3,94,84,71,30.15,29.88,21,5,21,0.00
2013-12-10,16.3,11.8,-1.1,14.1,6.4,-5.0,91,79,71,30.15,29.85,31,8,35,0.00
2013-12-11,16.8,4.7,-6.2,15.1,0.0,-10.3,94,81,64,30.49,30.12,20,2,22,0.00
2013-12-12,22.6,10.8,-1.7,15.1,5.8,-5.9,92,80,71,30.44,30.07,20,4,20,0.00
2013-12-13,27.6,19.2,6.6,22.3,15.8,4.2,94,87,78,30.07,29.90,13,2,13,0.00
2013-12-14,23.9,20.5,14.0,20.4,17.5,10.2,92,88,83,29.97,29.92,14,4,15,0.00
2013-12-15,14.1,10.7,6.7,10.7,5.7,1.5,89,80,70,30.01,29.94,16,2,16,0.00
2013-12-16,21.6,16.2,11.3,20.3,13.5,8.3,95,89,83,29.99,29.87,11,3,12,0.00
2013-12-17,34.3,25.4,15.8,27.5,20.3,12.9,94,81,68,30.05,29.89,30,6,30,0.00
2013-12-18,43.7,28.8,14.2,31.4,22.0,11.5,96,77,54,30.03,29.62,25,3,25,0.00
2013-12-19,36.0,29.6,22.5,31.6,27.6,21.5,98,92,81,29.75,29.64,14,2,14,0.00
2013-12-20,31.3,25.6,23.6,30.5,24.5,22.3,98,96,93,29.74,29.64,13,2,13,0.00
2013-12-21,27.6,25.7,23.5,27.0,24.7,22.7,98,96,93,29.75,29.56,13,2,13,0.00
2013-12-22,27.5,20.9,6.4,26.8,19.4,3.1,98,94,86,30.12,29.58,14,4,14,0.00
2013-12-23,6.3,-1.3,-6.8,2.9,-5.6,-10.9,86,82,76,30.43,30.13,18,5,18,0.00
2013-12-24,14.0,-1.2,-14.5,11.3,-5.5,-17.9,90,82,70,30.46,30.14,16,4,16,0.00
2013-12-25,25.9,20.8,14.1,24.7,18.7,11.4,97,92,80,30.14,30.02,15,5,15,0.00
2013-12-26,36.8,24.0,12.9,29.9,20.6,11.0,96,87,73,30.09,29.98,10,2,10,0.01
2013-12-27,42.4,30.9,15.2,31.7,25.5,13.8,98,82,65,30.12,29.93,19,4,19,0.07
2013-12-28,47.7,39.4,31.0,34.9,31.8,28.1,89,75,60,29.94,29.65,19,6,19,0.00
2013-12-29,35.2,13.2,-4.7,31.4,9.1,-9.1,95,83,74,30.19,29.66,29,7,29,0.00
2013-12-30,6.5,-0.4,-8.6,4.2,-4.4,-12.0,90,83,65,30.22,30.09,9,1,10,0.00
2013-12-31,9.1,2.4,-10.3,5.7,-0.9,-13.6,89,86,82,30.25,30.12,12,1,12,0.00
2014-1-1,11.7,8.8,4.9,8.3,4.9,1.9,88,84,77,30.21,30.14,16,3,16,0.00
2014-1-2,8.7,3.7,-9.3,3.8,-1.1,-12.3,87,80,73,30.36,30.17,14,3,14,0.00